{"data":{"norad_id":51798,"epoch":"2026-09-20T01:27:48.515616Z","epoch_age_seconds":90106,"freshness":"FRESH","line1":"1 51798U 22017AG  26263.06097819 -.00000545  00000+0 -49958-5 0  9996","line2":"2 51798  53.1618 180.1160 0001517  85.0795 275.0380 15.34388704253537","mean_motion":15.34388704,"eccentricity":0.0001517,"inclination_deg":53.1618,"raan_deg":180.116,"arg_perigee_deg":85.0795,"mean_anomaly_deg":275.038,"bstar":-4.9958e-6,"rev_number":25353,"period_min":93.848448978154,"perigee_km":461.69905394794,"apogee_km":463.77457506326,"semimajor_km":6840.8738145056,"source":"CELESTRAK","updated_at":"2026-09-20T09:00:39.941324Z"}}